Location: Ostrava
(49.8330°N, 18.2830°E)
Time: 00:32:08
(UTC+02:00)

Envisat - Pass Details

Date: 25 January 2022
Orbit: 764 x 765 km, 98.2° (Epoch: 21 May)

Event Time Altitude Azimuth Distance (km) Brightness Sun altitude
Rises 05:52:10 0° 7° (N) 3,243 6.2 -15.5°
Reaches altitude 10° 05:54:41 10° 357° (N) 2,312 5.3 -15.1°
Maximum altitude 05:59:08 31° 297° (WNW) 1,312 3.7 -14.4°
Drops below altitude 10° 06:03:33 10° 236° (SW) 2,300 5.1 -13.7°
Sets 06:06:03 0° 226° (SW) 3,222 5.9 -13.3°
